CAPE
730 1092 2440 1941 1623 1780 1606 1867 1857 1525 1097 663 337 113 16 4 4 3 0 0 0 0 5 52 93 66 57 17 0 0 0 0 0 0 0 0 0 0 0 0 0 3 0
827 1284 2256 2382 2080 1964 2066 1929 1882 1566 1086 511 138 12 4 0 0 1 0 2 11 0 4 63 67 70 17 0 0 0 0 0 0 0 0 0 0 0 0 0 2 0 2
957 1261 1245 2278 2227 2312 2222 1689 1430 929 639 399 40 16 3 0 0 1 0 26 87 24 15 68 77 35 0 0 0 0 0 0 0 0 0 0 0 0 0 0 0 0 0
957 1087 930 1728 2175 2259 1877 1399 1154 867 411 272 41 9 0 0 0 0 0 32 87 117 65 22 10 0 0 0 0 0 0 0 0 0 7 15 9 0 0 0 0 0 0
913 734 673 1269 2009 2052 1845 1538 1089 904 510 266 32 0 0 0 0 1 1 13 13 10 11 10 1 0 0 1 1 0 0 0 0 0 13 31 33 32 61 85 50 0 0
872 643 532 902 1507 1970 1849 1665 1462 825 567 195 146 0 0 0 1 2 5 3 0 0 0 0 0 0 0 2 4 0 0 0 0 0 19 12 27 0 94 152 224 232 160
684 563 457 1053 1566 1412 1309 1126 1216 1020 741 182 110 5 0 0 1 2 0 0 0 0 0 0 1 2 2 4 0 0 0 0 3 3 16 22 23 0 119 60 133 110 192
660 546 466 843 1058 820 672 734 819 856 735 399 311 45 0 0 2 2 1 1 1 1 3 16 41 39 5 0 0 0 0 0 4 16 14 24 0 14 74 19 5 15 31
755 597 549 552 552 626 600 541 558 737 807 833 526 295 181 92 11 0 1 30 28 33 39 67 77 0 0 0 0 0 0 0 7 3 0 4 1 114 73 26 7 12 5
871 620 444 453 450 225 200 343 357 440 502 856 431 283 191 149 115 31 56 56 77 164 139 211 49 0 0 0 0 0 0 0 0 0 0 3 90 110 44 21 10 6 3
839 727 522 425 299 205 170 180 261 331 482 561 249 160 117 111 134 65 6 71 168 193 175 226 3 0 0 0 0 0 0 0 0 0 2 102 31 32 17 6 4 6 4
478 711 596 471 324 306 160 206 163 178 353 608 434 301 180 98 128 118 57 77 171 219 345 184 0 0 0 0 0 0 0 0 0 0 10 83 34 25 4 2 0 1 1
496 580 621 516 471 421 277 191 197 232 212 190 253 228 116 115 211 219 221 155 35 116 190 71 0 0 0 0 0 0 0 0 0 0 22 39 19 5 3 2 0 0 0
643 556 497 536 520 587 507 400 206 237 243 186 121 103 118 133 172 187 233 183 143 90 129 68 0 0 0 0 0 0 0 0 0 0 16 15 2 0 0 0 0 0 0
747 721 604 512 618 848 757 693 537 255 274 224 171 129 106 111 142 195 223 190 182 95 73 8 0 0 0 0 0 0 0 0 0 0 8 7 0 0 0 0 0 0 0
989 926 710 669 759 733 712 713 845 684 328 313 221 180 153 102 117 223 317 208 238 154 63 5 0 0 0 0 0 0 0 0 0 0 1 6 0 0 0 0 0 0 0
22 431 1067 1030 1079 944 865 860 664 946 682 438 403 266 177 120 100 165 268 360 262 173 63 0 0 0 0 0 0 0 0 0 0 0 0 0 0 0 0 0 0 0 0
0 0 0 574 1151 1272 1005 827 884 780 819 811 513 411 294 135 94 114 182 229 204 167 62 0 0 0 0 0 0 0 0 0 0 0 0 0 0 0 0 0 0 0 0
0 0 0 0 476 1028 1267 1004 872 1146 973 1176 921 535 395 280 154 83 90 138 159 145 22 0 0 0 0 0 0 0 0 0 0 0 0 0 0 0 0 0 0 0 0
0 0 0 0 0 306 906 1160 992 811 978 892 1143 932 605 383 281 131 60 69 101 118 13 0 0 0 0 0 0 0 0 0 0 0 0 0 0 0 0 0 0 0 0
0 0 0 0 0 0 98 1184 1056 883 679 623 596 1055 900 587 355 232 139 70 64 77 28 0 0 0 0 0 0 0 0 0 0 0 0 0 0 0 0 0 0 0 0
0 0 0 0 0 0 0 197 948 961 836 810 492 403 688 777 512 340 233 191 82 62 33 0 0 0 0 0 0 0 0 0 0 0 0 0 0 0 0 0 0 0 0
0 0 0 0 0 0 0 0 193 781 1063 759 612 580 453 782 713 474 294 293 164 35 44 19 0 0 0 0 0 0 0 0 0 0 0 0 0 0 0 0 0 0 0
0 0 0 0 0 0 0 0 0 124 419 408 511 667 849 405 526 599 387 236 92 23 3 1 0 0 0 0 0 0 0 0 0 0 0 0 0 0 0 0 0 0 0
0 0 0 0 0 0 0 0 0 0 23 66 389 561 636 651 302 303 244 342 213 51 17 2 0 0 0 0 0 0 0 0 0 0 0 0 0 0 0 0 0 0 0
0 0 0 0 0 0 0 0 0 0 0 1 354 677 785 657 261 187 121 198 190 161 58 24 0 0 0 0 0 0 0 0 0 0 0 0 0 0 0 0 0 0 0
CIN
-236 -164 -60 -60 -66 -42 -31 -9 -4 -6 -11 -21 -48 -107 -42 -0 -0 -0 0 0 0 -0 -0 -0 -0 -0 -0 -2 0 0 0 0 0 0 0 0 0 -0 0 0 0 0 0
-215 -136 -62 -42 -47 -34 -18 -11 -6 -8 -22 -45 -103 0 -0 0 0 -0 0 0 -0 0 -0 -1 -0 -0 -1 -0 0 0 0 0 0 0 0 0 0 0 0 0 -5 -0 -0
-178 -128 -127 -50 -43 -23 -14 -25 -24 -37 -47 -59 -85 -1 -0 0 0 0 0 -0 -13 -1 -0 -2 -0 0 0 0 0 0 0 0 0 0 0 0 0 0 0 0 0 0 0
-163 -133 -139 -79 -40 -27 -29 -43 -45 -52 -72 -69 -34 -1 0 0 0 0 0 0 -14 -3 -5 -0 -15 0 0 0 0 0 0 0 0 0 -1 0 0 0 0 0 0 0 0
-149 -148 -158 -121 -51 -33 -31 -43 -59 -56 -82 -91 -35 0 0 0 0 0 -0 -0 0 -5 -8 -10 0 0 0 0 0 -0 0 0 0 0 0 0 0 0 -46 -80 -68 0 0
-132 -144 -186 -134 -70 -32 -21 -37 -48 -73 -85 -132 -109 0 0 0 -0 -0 -0 -5 0 -1 -0 0 0 0 0 0 0 0 0 0 0 0 0 -3 0 0 -71 -51 -35 -54 -67
-145 -148 -184 -105 -52 -60 -44 -51 -51 -57 -71 -140 -146 -65 0 -0 0 -0 0 0 0 0 0 -0 -0 -0 -0 0 0 0 0 0 0 0 0 0 -0 0 -74 -112 -67 -93 -61
-142 -148 -167 -124 -92 -107 -103 -75 -73 -67 -67 -108 -114 -203 0 -0 -0 0 0 -0 0 -0 0 -48 -64 -51 -0 0 0 0 0 0 0 0 0 0 0 -0 -82 0 -0 -0 -54
-121 -128 -144 -139 -141 -125 -104 -99 -91 -74 -64 -59 -94 -119 -140 -169 -176 -0 0 -179 -168 -151 -118 -79 -59 0 0 0 0 0 0 0 0 0 0 0 0 -80 -137 0 -0 -0 -0
-94 -114 -130 -132 -134 -190 -203 -157 -141 -99 -93 -48 -105 -146 -154 -157 -154 -199 -157 -146 -125 -79 -81 -47 -95 0 0 0 0 0 0 0 0 0 0 -0 -57 -74 -0 -0 -0 -0 0
-101 -102 -118 -125 -149 -165 -186 -201 -160 -130 -93 -86 -159 -198 -212 -180 -152 -179 -75 -162 -100 -81 -76 -57 -19 0 0 0 0 0 0 0 0 0 0 -47 -0 0 -1 -0 -0 -0 -0
-155 -101 -103 -112 -128 -130 -188 -161 -177 -167 -93 -54 -85 -123 -144 -182 -153 -156 -194 -170 -103 -75 -42 -74 0 0 0 0 0 0 0 0 0 0 0 -95 0 -0 -0 0 0 0 0
-139 -117 -104 -104 -92 -94 -125 -149 -137 -118 -131 -142 -112 -120 -170 -168 -116 -101 -100 -128 -204 -126 -76 -135 0 0 0 0 0 0 0 0 0 0 -6 -3 -0 0 -0 0 0 0 0
-106 -114 -113 -106 -102 -73 -69 -95 -135 -118 -104 -134 -187 -202 -189 -167 -136 -110 -84 -100 -131 -153 -117 -146 0 0 0 0 0 0 0 0 0 0 -7 -4 -0 0 0 0 0 0 0
-85 -80 -83 -95 -87 -55 -52 -48 -55 -115 -105 -104 -138 -176 -192 -178 -156 -110 -90 -91 -104 -151 -162 -87 0 0 0 0 0 0 0 0 0 0 0 -14 0 0 0 0 0 0 0
-44 -55 -79 -78 -63 -61 -68 -77 -44 -44 -80 -72 -99 -139 -156 -182 -160 -104 -71 -92 -70 -100 -178 -98 0 0 0 0 0 0 0 0 0 0 0 -1 0 0 0 0 0 0 0
-4 -36 -17 -35 -43 -60 -58 -56 -77 -43 -49 -72 -66 -86 -125 -137 -160 -106 -68 -54 -56 -72 -161 0 0 0 0 0 0 0 0 0 0 0 0 0 0 0 0 0 0 0 0
0 0 0 -36 -16 -21 -46 -76 -70 -69 -52 -50 -68 -81 -95 -117 -141 -123 -94 -80 -83 -104 -153 0 0 0 0 0 0 0 0 0 0 0 0 0 0 0 0 0 0 0 0
0 0 0 0 -42 -20 -18 -52 -74 -38 -43 -25 -37 -89 -115 -102 -112 -132 -122 -119 -115 -83 -165 0 0 0 0 0 0 0 0 0 0 0 0 0 0 0 0 0 0 0 0
0 0 0 0 0 -51 -11 -19 -40 -56 -59 -71 -29 -48 -92 -105 -115 -119 -152 -114 -81 -89 -119 0 0 0 0 0 0 0 0 0 0 0 0 0 0 0 0 0 0 0 0
0 0 0 0 0 0 -64 -3 -27 -59 -109 -107 -125 -64 -40 -84 -110 -121 -134 -135 -107 -115 -165 0 0 0 0 0 0 0 0 0 0 0 0 0 0 0 0 0 0 0 0
0 0 0 0 0 0 0 -36 -14 -23 -48 -65 -122 -142 -92 -68 -109 -122 -128 -131 -123 -145 -163 0 0 0 0 0 0 0 0 0 0 0 0 0 0 0 0 0 0 0 0
0 0 0 0 0 0 0 0 -54 -1 -0 -25 -71 -117 -169 -117 -98 -116 -134 -121 -127 -169 -150 -177 0 0 0 0 0 0 0 0 0 0 0 0 0 0 0 0 0 0 0
0 0 0 0 0 0 0 0 0 -53 -21 -47 -64 -78 -77 -141 -106 -93 -126 -110 -162 -200 -41 -42 0 0 0 0 0 0 0 0 0 0 0 0 0 0 0 0 0 0 0
0 0 0 0 0 0 0 0 0 0 -81 -46 -19 -17 -27 -50 -128 -124 -131 -98 -109 -203 -229 -83 0 0 0 0 0 0 0 0 0 0 0 0 0 0 0 0 0 0 0
0 0 0 0 0 0 0 0 0 0 0 0 -11 -7 -14 -21 -72 -108 -134 -110 -122 -127 -185 -229 0 0 0 0 0 0 0 0 0 0 0 0 0 0 0 0 0 0 0
Wind_Speed
11 14 15 15 14 13 14 12 14 14 15 15 12 11 11 10 9 8 6 4 5 5 7 8 11 12 12 11 11 11 11 12 11 11 11 11 10 10 10 8 2 9 6
16 16 15 16 16 14 14 13 13 14 15 15 12 10 10 9 8 8 5 5 4 7 6 8 11 12 13 11 11 11 11 10 10 9 7 9 9 9 8 8 9 8 9
16 16 17 14 15 13 14 15 15 15 15 15 12 11 9 8 8 8 7 9 8 11 8 9 14 13 12 11 11 10 10 9 8 7 2 7 9 6 6 6 7 6 6
14 15 15 15 13 13 15 15 14 14 13 12 14 11 9 8 9 9 8 10 14 16 15 14 13 12 11 11 10 9 9 9 7 3 4 6 8 6 4 4 3 2 2
13 13 14 14 15 14 14 15 14 14 14 12 13 12 9 9 9 9 9 9 13 13 13 12 11 10 10 10 9 8 8 7 5 3 6 6 7 9 10 6 2 3 1
14 12 15 11 11 13 12 12 15 15 14 13 12 12 10 9 9 9 9 10 10 10 10 10 10 10 9 9 7 6 5 4 6 6 5 6 6 8 9 12 15 13 11
12 11 15 13 12 13 12 10 10 14 13 14 13 12 10 10 10 9 8 9 8 8 9 10 10 10 9 7 6 5 5 1 3 5 4 4 9 6 10 11 14 15 15
12 11 13 11 12 11 10 9 9 10 12 13 13 12 11 11 11 10 9 8 8 9 9 9 9 9 7 6 5 6 5 0 4 4 4 4 6 5 9 11 10 12 14
12 11 13 12 10 8 8 8 9 8 10 12 13 13 11 11 10 10 9 8 8 9 9 9 10 8 7 6 5 6 5 3 1 4 2 2 3 8 12 12 11 11 10
11 11 11 11 11 11 10 8 8 9 8 11 12 13 11 10 9 9 7 7 7 8 8 9 9 8 8 8 7 7 5 3 5 3 2 5 7 12 12 12 11 10 11
9 11 10 11 10 9 9 9 9 7 6 11 11 9 11 9 11 11 6 8 6 6 8 10 11 9 9 8 7 5 5 2 3 2 2 9 10 10 10 10 9 9 11
10 10 9 10 10 9 7 9 10 10 9 10 12 13 9 9 9 7 8 8 7 5 7 10 10 9 7 5 5 5 2 2 1 2 4 8 10 10 10 9 10 9 10
9 10 11 9 10 10 8 6 5 5 6 7 11 10 10 8 7 7 6 7 7 7 7 8 7 5 5 3 3 3 2 2 2 3 8 8 9 9 8 8 9 8 8
10 10 11 12 10 11 8 8 7 6 7 7 8 12 9 7 8 8 6 8 7 7 7 6 5 5 5 5 4 4 4 3 3 3 8 7 10 8 8 8 8 8 8
11 12 12 13 13 12 11 7 8 8 8 9 9 11 9 9 8 8 7 8 7 7 7 7 6 6 5 5 5 5 5 5 5 3 5 6 9 9 8 8 7 7 7
13 12 12 13 13 11 10 12 9 9 9 9 9 10 13 10 9 8 8 9 8 7 7 7 6 6 5 5 5 5 5 5 6 5 5 7 7 8 7 6 6 7 6
10 11 15 15 15 15 15 10 10 9 9 9 10 13 14 13 11 10 9 9 9 8 9 7 7 6 5 4 5 5 4 6 5 6 5 6 7 6 7 7 6 6 5
11 11 12 12 14 16 15 13 9 10 10 10 9 9 15 15 14 12 10 10 10 9 8 8 7 7 6 6 5 5 5 5 6 6 5 5 5 6 5 7 7 6 4
13 13 14 14 16 17 16 12 10 13 11 11 10 11 14 15 16 13 11 10 12 9 9 8 8 8 7 6 5 5 5 5 7 5 8 7 7 6 5 7 7 5 4
11 12 13 12 15 16 13 10 7 7 11 9 11 12 16 14 17 14 12 12 12 10 10 10 11 9 8 7 6 5 5 5 6 7 8 7 7 7 7 8 7 5 3
10 11 12 12 13 12 11 7 9 10 10 8 9 16 15 15 17 17 13 14 14 13 13 13 11 12 7 7 5 4 4 6 7 7 7 8 9 8 8 7 5 4 5
9 10 11 12 13 12 12 11 12 12 10 11 8 9 15 16 18 16 17 14 16 13 15 15 15 9 8 10 6 4 5 6 7 9 8 9 10 8 8 9 8 7 5
5 6 8 10 12 12 13 10 10 10 8 9 9 11 13 18 18 18 18 14 15 13 12 14 15 16 10 10 11 4 4 6 6 6 10 9 10 8 9 9 9 7 6
7 6 6 7 9 10 11 11 16 13 13 12 12 11 11 13 16 16 18 16 15 12 15 15 12 14 11 10 7 7 4 1 5 4 5 9 10 11 10 7 8 7 6
6 7 6 6 5 6 8 11 11 14 11 11 10 14 15 13 13 14 15 18 16 13 15 15 15 16 12 11 9 4 7 4 4 4 4 7 8 9 9 9 7 6 6
7 6 6 7 6 5 4 8 13 15 14 12 11 11 11 9 8 12 14 14 15 14 15 14 14 15 13 11 9 7 8 7 8 6 6 5 7 8 7 7 7 6 5
Wind_Direction
160 149 152 153 149 145 147 147 138 138 129 120 120 122 118 118 120 120 118 117 124 137 141 128 124 106 100 91 86 84 81 77 76 76 73 73 74 73 74 63 299 81 52
154 150 155 160 148 153 152 140 129 127 125 123 123 124 121 120 124 128 126 112 90 144 137 122 119 109 101 101 95 94 93 95 90 82 92 99 68 84 71 51 10 67 61
155 143 158 142 144 151 150 137 131 132 127 129 133 126 121 121 128 131 127 94 70 134 127 119 114 99 102 102 102 100 96 96 98 92 254 79 82 78 70 44 35 74 55
154 151 157 148 146 148 138 142 140 138 133 141 136 123 122 120 125 128 125 96 82 88 92 97 99 103 106 109 106 100 95 94 101 199 102 74 84 82 65 60 60 65 34
157 160 147 154 148 144 144 149 152 149 150 155 128 128 124 122 122 125 122 103 94 89 93 98 102 102 111 108 103 97 95 98 129 193 89 64 50 64 54 59 77 159 253
157 160 131 144 147 144 141 157 161 153 156 140 130 130 128 123 122 122 109 83 87 96 101 105 107 107 112 113 106 97 93 110 232 93 86 94 83 53 70 69 68 66 92
161 158 155 147 137 136 140 147 156 161 162 146 142 137 136 129 123 123 121 113 111 110 111 115 117 116 118 115 109 95 77 119 154 110 98 64 69 70 83 76 66 64 64
157 162 143 147 133 137 151 159 159 162 162 156 152 147 143 138 135 133 133 133 132 129 128 126 120 114 111 106 101 94 80 288 184 103 78 62 56 92 96 82 68 66 67
161 168 155 173 156 146 163 167 168 177 174 169 161 151 148 143 145 146 146 147 145 149 137 136 121 111 106 101 106 107 90 353 118 87 102 103 58 108 97 88 77 71 66
174 175 173 177 178 180 175 175 177 180 193 170 169 152 150 143 149 152 150 157 160 157 148 133 121 113 106 102 103 110 116 209 101 119 114 72 107 97 90 82 77 74 71
198 183 183 181 181 185 184 162 182 193 166 166 161 150 153 185 177 157 127 150 169 154 148 135 127 120 111 103 107 120 223 117 140 142 124 107 102 99 89 82 79 79 73
191 198 191 190 189 189 188 173 191 180 192 184 182 176 197 192 185 198 151 170 175 177 173 138 136 139 202 154 140 188 195 159 167 148 100 120 113 103 101 102 92 88 84
199 199 210 202 197 197 192 194 193 195 199 199 202 194 197 191 176 202 174 182 182 187 173 167 166 195 183 176 170 168 157 182 161 156 107 135 123 117 111 111 105 99 93
208 210 208 206 209 214 203 200 200 203 198 205 203 201 195 196 198 200 197 198 192 191 188 197 189 176 178 186 183 178 178 185 180 182 115 129 125 123 126 119 111 104 94
215 217 214 213 211 211 217 218 210 205 201 205 209 208 209 207 203 204 202 201 204 195 196 195 192 182 186 181 182 193 186 186 181 173 130 112 122 134 136 130 124 118 110
216 214 219 220 221 221 220 213 229 212 212 209 208 214 211 216 211 206 197 201 205 200 202 201 197 192 186 193 188 200 191 189 184 179 153 138 118 133 142 140 134 130 122
234 232 219 212 216 213 218 219 224 234 221 214 215 212 214 216 214 209 205 201 204 202 201 202 196 193 186 192 198 197 198 193 192 180 181 152 142 122 158 152 141 140 127
251 244 241 228 219 218 223 222 216 222 226 223 221 221 213 215 214 212 213 209 207 198 200 197 193 196 199 196 192 189 199 199 198 192 185 180 183 162 149 158 150 146 148
249 245 238 236 230 227 224 224 220 224 222 230 214 215 218 214 215 217 216 211 207 203 201 199 195 200 198 198 198 186 197 201 202 195 198 190 182 192 182 131 131 128 143
259 255 249 238 236 237 232 222 215 223 226 228 228 224 216 215 212 216 213 215 208 205 203 197 197 200 206 194 188 192 193 209 210 207 199 197 185 192 199 177 170 150 125
263 256 244 245 240 239 234 219 214 215 226 218 228 228 220 219 213 211 214 211 208 208 205 199 196 193 193 188 163 191 204 219 218 213 210 204 194 199 197 196 205 194 166
269 263 258 248 241 236 237 226 226 225 233 233 226 227 233 223 219 215 213 211 207 208 206 201 194 190 197 188 197 174 202 199 222 216 211 212 206 200 205 203 204 206 202
333 306 272 262 256 248 242 245 237 234 233 227 222 229 222 229 221 217 219 209 211 206 205 204 197 190 187 194 206 200 176 225 164 185 214 213 213 207 209 204 206 201 203
16 354 327 292 267 250 244 242 235 230 230 232 239 230 231 224 235 225 223 216 211 209 206 203 198 200 189 192 197 228 252 35 202 182 214 214 218 214 209 203 205 200 203
2 355 342 326 315 273 251 235 242 241 247 245 241 244 242 230 220 226 218 224 215 210 215 201 200 203 208 195 195 159 212 215 240 236 182 194 213 218 213 206 199 196 198
5 353 346 340 341 346 294 245 236 240 243 248 243 245 246 239 228 225 225 219 220 214 216 208 204 204 204 215 205 187 190 186 202 199 226 186 208 195 200 204 203 195 190